| time (UTC) | temp C | wind direction | speed KPH | gust KPH | rain 1hr cm | rain 24hr cm | rain mn cm | humidity % | barometer mb |
| 20260509064524 | 8 | 42 | 0.0 | 0.0 | 0.00 | 0.08 | 0.00 | 92 | 1011.2 |
| 20260509063021 | 8 | 42 | 0.0 | 0.0 | 0.00 | 0.08 | 0.00 | 92 | 1011.7 |
| 20260509061517 | 8 | 42 | 0.0 | 0.0 | 0.00 | 0.08 | 0.00 | 91 | 1012.0 |
| 20260509060017 | 8 | 42 | 0.0 | 0.0 | 0.00 | 0.08 | 0.00 | 91 | 1012.1 |
| 20260509054523 | 8 | 42 | 0.0 | 1.6 | 0.00 | 0.08 | 0.00 | 90 | 1012.1 |
| 20260509053028 | 8 | 42 | 0.0 | 0.0 | 0.00 | 0.08 | 0.00 | 90 | 1012.3 |
| 20260509051516 | 8 | 42 | 0.0 | 0.0 | 0.00 | 0.08 | 0.00 | 90 | 1012.6 |
| 20260509050032 | 8 | 42 | 0.0 | 0.0 | 0.00 | 0.08 | 0.00 | 90 | 1013.0 |
| 20260509044515 | 8 | 42 | 0.0 | 0.0 | 0.00 | 0.08 | 0.00 | 90 | 1013.0 |
| 20260509043007 | 8 | 42 | 0.0 | 0.0 | 0.00 | 0.08 | 0.00 | 90 | 1012.8 |
| 20260509041507 | 8 | 42 | 0.0 | 0.0 | 0.00 | 0.08 | 0.00 | 90 | 1012.8 |
| 20260509040005 | 8 | 42 | 0.0 | 0.0 | 0.00 | 0.08 | 0.00 | 89 | 1012.9 |
| 20260509034502 | 8 | 42 | 0.0 | 0.0 | 0.00 | 0.08 | 0.08 | 89 | 1013.1 |
| 20260509033002 | 8 | 42 | 0.0 | 0.0 | 0.00 | 0.08 | 0.08 | 88 | 1013.0 |
| 20260509031501 | 9 | 42 | 0.0 | 0.0 | 0.00 | 0.08 | 0.08 | 89 | 1012.8 |
| 20260509030004 | 8 | 42 | 0.0 | 0.0 | 0.00 | 0.08 | 0.08 | 88 | 1012.7 |
| 20260509024600 | 8 | 42 | 0.0 | 0.0 | 0.00 | 0.08 | 0.08 | 87 | 1012.8 |
| 20260509023100 | 9 | 42 | 0.0 | 1.6 | 0.00 | 0.08 | 0.08 | 87 | 1013.0 |
| 20260509021601 | 9 | 42 | 0.0 | 1.6 | 0.03 | 0.08 | 0.08 | 86 | 1013.1 |
| 20260509020058 | 10 | 43 | 0.0 | 0.0 | 0.03 | 0.08 | 0.08 | 84 | 1012.6 |
| 20260509014608 | 10 | 48 | 0.0 | 3.2 | 0.03 | 0.08 | 0.08 | 81 | 1012.3 |
| 20260509013110 | 10 | 217 | 0.0 | 1.6 | 0.03 | 0.08 | 0.08 | 79 | 1012.7 |
| 20260509011605 | 11 | 143 | 0.0 | 0.0 | 0.00 | 0.05 | 0.05 | 75 | 1012.6 |
| 20260509010056 | 11 | 142 | 0.0 | 1.6 | 0.00 | 0.05 | 0.05 | 73 | 1012.2 |
| 20260509004604 | 11 | 82 | 0.0 | 4.8 | 0.00 | 0.05 | 0.05 | 71 | 1011.8 |
| 20260509003121 | 11 | 119 | 0.0 | 6.4 | 0.00 | 0.05 | 0.05 | 70 | 1012.0 |
| 20260509001605 | 12 | 58 | 0.0 | 4.8 | 0.00 | 0.05 | 0.05 | 68 | 1011.9 |
| 20260509000111 | 12 | 59 | 1.6 | 6.4 | 0.00 | 0.05 | 0.05 | 69 | 1011.9 |
| 20260508234554 | 12 | 63 | 0.0 | 9.7 | 0.00 | 0.05 | 0.05 | 69 | 1011.8 |
| 20260508233054 | 12 | 108 | 1.6 | 11.3 | 0.00 | 0.05 | 0.05 | 69 | 1011.7 |
| 20260508231554 | 12 | 157 | 1.6 | 8.0 | 0.00 | 0.05 | 0.05 | 69 | 1011.7 |
| 20260508230053 | 12 | 354 | 1.6 | 12.9 | 0.00 | 0.05 | 0.05 | 68 | 1011.4 |
| 20260508224602 | 12 | 113 | 1.6 | 9.7 | 0.00 | 0.05 | 0.05 | 71 | 1011.3 |
| 20260508223051 | 12 | 44 | 0.0 | 8.0 | 0.00 | 0.05 | 0.05 | 72 | 1011.3 |
| 20260508221549 | 12 | 51 | 0.0 | 11.3 | 0.00 | 0.05 | 0.05 | 73 | 1011.4 |
| 20260508220049 | 12 | 49 | 0.0 | 6.4 | 0.00 | 0.05 | 0.05 | 75 | 1011.6 |
| 20260508214552 | 12 | 108 | 0.0 | 3.2 | 0.00 | 0.05 | 0.05 | 78 | 1011.6 |
| 20260508213048 | 11 | 73 | 1.6 | 9.7 | 0.03 | 0.05 | 0.05 | 79 | 1011.7 |
| 20260508211548 | 11 | 56 | 0.0 | 0.0 | 0.05 | 0.05 | 0.05 | 82 | 1011.5 |
| 20260508210047 | 11 | 55 | 0.0 | 3.2 | 0.05 | 0.05 | 0.05 | 82 | 1011.7 |
| 20260508204546 | 10 | 58 | 0.0 | 3.2 | 0.05 | 0.05 | 0.05 | 80 | 1011.8 |
| 20260508203050 | 12 | 53 | 1.6 | 11.3 | 0.03 | 0.03 | 0.03 | 72 | 1012.3 |
| 20260508201543 | 14 | 258 | 3.2 | 12.9 | 0.00 | 0.00 | 0.00 | 55 | 1011.5 |
| 20260508200056 | 14 | 214 | 1.6 | 4.8 | 0.00 | 0.00 | 0.00 | 56 | 1011.3 |
| 20260508194512 | 13 | 60 | 0.0 | 1.6 | 0.00 | 0.00 | 0.00 | 64 | 1011.4 |
| 20260508193053 | 13 | 49 | 0.0 | 6.4 | 0.00 | 0.00 | 0.00 | 62 | 1011.5 |
| 20260508191542 | 13 | 15 | 0.0 | 1.6 | 0.00 | 0.00 | 0.00 | 62 | 1011.7 |
| 20260508190045 | 13 | 32 | 1.6 | 6.4 | 0.00 | 0.00 | 0.00 | 60 | 1011.5 |
| 20260508184544 | 13 | 63 | 1.6 | 6.4 | 0.00 | 0.00 | 0.00 | 62 | 1011.7 |
| 20260508183041 | 13 | 56 | 1.6 | 9.7 | 0.00 | 0.00 | 0.00 | 61 | 1012.2 |
| 20260508181536 | 14 | 61 | 0.0 | 6.4 | 0.00 | 0.00 | 0.00 | 54 | 1012.0 |
| 20260508180034 | 14 | 97 | 1.6 | 4.8 | 0.00 | 0.00 | 0.00 | 56 | 1012.2 |
| 20260508174553 | 15 | 30 | 3.2 | 11.3 | 0.00 | 0.00 | 0.00 | 57 | 1012.1 |
| 20260508173032 | 13 | 70 | 1.6 | 11.3 | 0.00 | 0.00 | 0.00 | 65 | 1012.5 |
| 20260508171528 | 12 | 47 | 3.2 | 16.1 | 0.00 | 0.00 | 0.00 | 66 | 1012.7 |
| 20260508170032 | 13 | 61 | 1.6 | 9.7 | 0.00 | 0.00 | 0.00 | 55 | 1012.7 |
| 20260508164526 | 13 | 60 | 3.2 | 14.5 | 0.00 | 0.00 | 0.00 | 53 | 1012.6 |
| 20260508163039 | 13 | 58 | 1.6 | 12.9 | 0.00 | 0.00 | 0.00 | 52 | 1012.7 |
| 20260508161523 | 13 | 51 | 3.2 | 11.3 | 0.00 | 0.00 | 0.00 | 53 | 1012.7 |
| 20260508160026 | 13 | 110 | 1.6 | 8.0 | 0.00 | 0.00 | 0.00 | 53 | 1012.9 |
| 20260508154523 | 14 | 329 | 3.2 | 20.9 | 0.00 | 0.00 | 0.00 | 52 | 1012.8 |
| 20260508153027 | 14 | 265 | 3.2 | 19.3 | 0.00 | 0.00 | 0.00 | 51 | 1012.9 |
| 20260508151527 | 13 | 51 | 4.8 | 17.7 | 0.00 | 0.00 | 0.00 | 52 | 1012.8 |
| 20260508150016 | 13 | 157 | 4.8 | 19.3 | 0.00 | 0.00 | 0.00 | 52 | 1012.7 |
| 20260508144516 | 13 | 293 | 6.4 | 19.3 | 0.00 | 0.00 | 0.00 | 53 | 1012.6 |
| 20260508143011 | 12 | 230 | 1.6 | 20.9 | 0.00 | 0.00 | 0.00 | 56 | 1012.7 |
| 20260508141507 | 12 | 82 | 3.2 | 9.7 | 0.00 | 0.00 | 0.00 | 57 | 1012.9 |
| 20260508140004 | 11 | 126 | 3.2 | 9.7 | 0.00 | 0.00 | 0.00 | 59 | 1013.0 |
| 20260508134501 | 10 | 65 | 1.6 | 8.0 | 0.00 | 0.00 | 0.00 | 61 | 1013.0 |
| 20260508133105 | 10 | 261 | 0.0 | 8.0 | 0.00 | 0.00 | 0.00 | 64 | 1013.2 |
| 20260508131557 | 9 | 221 | 0.0 | 12.9 | 0.00 | 0.00 | 0.00 | 65 | 1013.3 |
| 20260508130104 | 8 | 278 | 0.0 | 4.8 | 0.00 | 0.00 | 0.00 | 67 | 1013.5 |
| 20260508124546 | 7 | 88 | 0.0 | 3.2 | 0.00 | 0.00 | 0.00 | 72 | 1013.5 |
| 20260508123043 | 6 | 242 | 0.0 | 3.2 | 0.00 | 0.00 | 0.00 | 77 | 1013.6 |
| 20260508121541 | 5 | 32 | 0.0 | 0.0 | 0.00 | 0.00 | 0.00 | 83 | 1013.6 |
| 20260508120042 | 5 | 32 | 0.0 | 1.6 | 0.00 | 0.00 | 0.00 | 83 | 1013.5 |
| 20260508114539 | 4 | 32 | 0.0 | 0.0 | 0.00 | 0.00 | 0.00 | 85 | 1013.7 |
| 20260508113048 | 3 | 32 | 0.0 | 0.0 | 0.00 | 0.00 | 0.00 | 86 | 1013.9 |
| 20260508111538 | 2 | 32 | 0.0 | 0.0 | 0.00 | 0.00 | 0.00 | 89 | 1013.9 |
| 20260508110050 | 2 | 32 | 0.0 | 0.0 | 0.00 | 0.00 | 0.00 | 89 | 1013.8 |
| 20260508104535 | 1 | 32 | 0.0 | 0.0 | 0.00 | 0.00 | 0.00 | 89 | 1013.6 |
| 20260508103038 | 1 | 33 | 0.0 | 1.6 | 0.00 | 0.00 | 0.00 | 90 | 1013.5 |
| 20260508101537 | 1 | 32 | 0.0 | 0.0 | 0.00 | 0.00 | 0.00 | 91 | 1013.5 |
| 20260508100035 | 1 | 32 | 0.0 | 0.0 | 0.00 | 0.00 | 0.00 | 90 | 1013.3 |
| 20260508094530 | 1 | 32 | 0.0 | 0.0 | 0.00 | 0.00 | 0.00 | 90 | 1013.2 |
| 20260508093043 | 1 | 32 | 0.0 | 0.0 | 0.00 | 0.00 | 0.00 | 90 | 1013.1 |
| 20260508091531 | 1 | 32 | 0.0 | 0.0 | 0.00 | 0.00 | 0.00 | 90 | 1013.0 |
| 20260508090034 | 1 | 32 | 0.0 | 0.0 | 0.00 | 0.00 | 0.00 | 89 | 1013.1 |
| 20260508084525 | 1 | 32 | 0.0 | 0.0 | 0.00 | 0.00 | 0.00 | 89 | 1013.0 |
| 20260508083026 | 1 | 32 | 0.0 | 0.0 | 0.00 | 0.00 | 0.00 | 89 | 1013.0 |
| 20260508081522 | 1 | 32 | 0.0 | 0.0 | 0.00 | 0.00 | 0.00 | 88 | 1013.0 |
| 20260508080032 | 2 | 32 | 0.0 | 0.0 | 0.00 | 0.00 | 0.00 | 88 | 1013.0 |
| 20260508074523 | 2 | 32 | 0.0 | 0.0 | 0.00 | 0.00 | 0.00 | 87 | 1012.9 |
| 20260508073016 | 2 | 32 | 0.0 | 0.0 | 0.00 | 0.00 | 0.00 | 86 | 1012.9 |
| 20260508071513 | 3 | 34 | 0.0 | 0.0 | 0.00 | 0.00 | 0.00 | 84 | 1013.0 |
| 20260508070011 | 3 | 34 | 0.0 | 0.0 | 0.00 | 0.00 | 0.00 | 83 | 1013.2 |